FW5729 Weather Reports


Display with metric or nautical units.
time (UTC)temp
F
wind
direction
speed
MPH
gust
MPH
rain 1hr
in
rain 24hr
in
rain mn
in
humidity
%
barometer
mb
20260508080032 60 0 0.0 0.0 0.00 0.00 0.00 84 1014.0
20260508074533 60 0 0.0 0.0 0.00 0.00 0.00 85 1013.8
20260508073302 59 0 0.0 0.0 0.00 0.00 0.00 86 1013.7
20260508071535 59 0 0.0 0.0 0.00 0.00 0.00 88 1013.7
20260508070043 59 0 0.0 0.0 0.00 0.00 0.00 88 1013.8
20260508064539 59 0 0.0 0.0 0.00 0.00 0.00 88 1014.3
20260508063046 58 0 0.0 0.0 0.00 0.00 0.00 87 1014.4
20260508061537 59 0 0.0 0.0 0.00 0.00 0.00 87 1014.4
20260508060035 59 0 0.0 0.0 0.00 0.00 0.00 85 1014.9
20260508054535 59 0 0.0 0.0 0.00 0.00 0.00 84 1014.5
20260508053033 59 0 0.0 0.0 0.00 0.00 0.00 86 1014.4
20260508051532 59 0 0.0 0.0 0.00 0.00 0.00 85 1014.9
20260508050037 60 0 0.0 0.0 0.00 0.00 0.00 83 1014.9
20260508044533 59 0 0.0 0.0 0.00 0.00 0.00 84 1014.5
20260508043051 59 0 0.0 0.0 0.00 0.00 0.00 84 1014.8
20260508041533 60 0 0.0 3.0 0.00 0.00 0.00 83 1014.8
20260508040037 60 0 0.0 0.0 0.00 0.00 0.00 81 1014.2
20260508034533 60 0 0.0 0.0 0.00 0.00 0.00 78 1015.1
20260508033032 60 0 0.0 0.0 0.00 0.00 0.00 78 1015.1
20260508031533 60 0 0.0 0.0 0.00 0.00 0.00 78 1015.5
20260508030040 61 0 0.0 0.0 0.00 0.00 0.00 78 1015.7
20260508024532 61 0 0.0 0.0 0.00 0.00 0.00 78 1014.8
20260508023029 62 0 0.0 0.0 0.00 0.00 0.00 74 1014.2
20260508021531 62 0 0.0 1.0 0.00 0.00 0.00 72 1013.7
20260508020043 62 0 0.0 3.0 0.00 0.00 0.00 73 1013.3
20260508014533 62 0 0.0 0.0 0.00 0.00 0.00 71 1013.3
20260508013034 63 0 0.0 5.0 0.00 0.00 0.00 69 1013.4
20260508011533 63 0 0.0 6.0 0.00 0.00 0.00 69 1013.3
20260508010035 63 62 1.0 8.0 0.00 0.00 0.00 69 1013.2
20260508004534 64 63 2.0 10.0 0.00 0.00 0.00 69 1013.6
20260508003032 64 63 3.0 8.0 0.00 0.00 0.00 71 1014.0
20260508001557 64 60 2.0 7.0 0.00 0.00 0.00 69 1013.7
20260508000029 64 59 3.0 6.0 0.00 0.00 0.00 68 1013.8
20260507234535 65 67 1.0 7.0 0.00 0.00 0.00 66 1014.6
20260507233033 65 66 0.0 3.0 0.00 0.00 0.00 69 1015.1
20260507231536 65 51 3.0 6.0 0.00 0.00 0.00 68 1014.9
20260507230032 65 0 1.0 7.0 0.00 0.00 0.00 68 1015.0
20260507224541 65 77 3.0 7.0 0.00 0.00 0.00 67 1014.9
20260507223037 66 66 2.0 6.0 0.00 0.00 0.00 69 1015.1
20260507221620 66 62 4.0 8.0 0.00 0.00 0.00 67 1015.4
20260507221532 66 62 4.0 8.0 0.00 0.00 0.00 67 1015.4
20260507220042 65 23 4.0 8.0 0.00 0.00 0.00 68 1015.4
20260507214537 65 44 2.0 8.0 0.00 0.00 0.00 68 1015.7
20260507213034 65 63 4.0 9.0 0.00 0.00 0.00 67 1015.8
20260507211537 65 0 1.0 7.0 0.00 0.00 0.00 68 1016.2
20260507210033 64 35 3.0 8.0 0.00 0.00 0.00 70 1015.7
20260507204531 64 46 2.0 6.0 0.00 0.00 0.00 71 1015.6
20260507203033 63 63 1.0 11.0 0.00 0.00 0.00 70 1016.0
20260507201531 64 63 6.0 10.0 0.00 0.00 0.00 69 1016.0
20260507200034 64 44 4.0 7.0 0.00 0.00 0.00 70 1016.5
20260507194532 64 0 1.0 12.0 0.00 0.00 0.00 72 1016.6
20260507193034 64 25 5.0 10.0 0.00 0.00 0.00 69 1016.7
20260507191538 64 65 4.0 11.0 0.00 0.00 0.00 72 1017.0
20260507190038 63 39 1.0 10.0 0.00 0.00 0.00 73 1017.7
20260507184538 62 57 3.0 11.0 0.00 0.00 0.00 76 1017.4
20260507183043 62 48 7.0 14.0 0.00 0.00 0.00 74 1016.5
20260507181532 62 60 5.0 11.0 0.00 0.00 0.00 76 1016.7
20260507180039 61 59 4.0 10.0 0.00 0.00 0.00 80 1016.8
20260507174545 61 15 6.0 15.0 0.00 0.00 0.00 77 1017.1
20260507173036 62 58 2.0 8.0 0.00 0.00 0.00 78 1017.7
20260507171536 61 67 1.0 11.0 0.00 0.00 0.00 82 1018.1
20260507170041 59 38 4.0 9.0 0.00 0.00 0.00 87 1017.2
20260507164540 58 56 2.0 12.0 0.00 0.07 0.00 89 1017.0
20260507163039 57 66 6.0 9.0 0.00 0.07 0.00 90 1017.5
20260507161540 57 60 6.0 11.0 0.00 0.07 0.00 89 1017.8
20260507160034 57 0 2.0 5.0 0.00 0.07 0.00 88 1019.1
20260507154532 57 59 3.0 10.0 0.00 0.42 0.00 89 1018.1
20260507153033 56 35 3.0 9.0 0.00 0.42 0.00 90 1017.9
20260507151531 56 0 2.0 8.0 0.00 0.42 0.00 90 1018.6
20260507150034 56 0 0.0 8.0 0.00 0.42 0.00 88 1018.9
20260507144534 56 0 1.0 9.0 0.00 0.42 0.00 88 1018.4
20260507143035 56 55 2.0 9.0 0.00 0.42 0.00 89 1018.5
20260507141533 56 21 3.0 9.0 0.00 0.42 0.00 89 1018.4
20260507140034 56 18 5.0 12.0 0.00 0.42 0.00 89 1018.4
20260507134536 56 38 3.0 13.0 0.00 0.42 0.00 89 1018.3
20260507133033 56 55 7.0 17.0 0.00 0.42 0.00 89 1017.8
20260507131550 56 63 6.0 12.0 0.00 0.42 0.00 89 1017.6
20260507130031 56 0 7.0 13.0 0.00 0.42 0.00 89 1017.5
20260507124542 56 59 6.0 13.0 0.00 0.42 0.00 89 1017.5
20260507123032 56 30 7.0 12.0 0.00 0.42 0.00 88 1017.6
20260507121539 56 26 3.0 14.0 0.00 0.42 0.00 88 1017.5
20260507120042 57 60 7.0 20.0 0.00 0.42 0.00 87 1017.3
20260507114533 57 26 6.0 17.0 0.00 0.42 0.00 88 1016.8
20260507113034 57 51 6.0 19.0 0.00 0.42 0.00 88 1016.2
20260507111531 57 26 10.0 17.0 0.00 0.42 0.00 88 1016.6
20260507110041 57 60 6.0 14.0 0.00 0.42 0.00 88 1016.7
20260507104540 57 63 6.0 9.0 0.00 0.42 0.00 89 1016.5
20260507103035 57 63 3.0 12.0 0.00 0.42 0.00 89 1016.5
20260507101536 57 64 4.0 14.0 0.00 0.42 0.00 89 1016.4
20260507100037 58 19 6.0 10.0 0.00 0.42 0.00 89 1016.1
20260507094538 58 55 4.0 8.0 0.00 0.42 0.00 89 1016.0
20260507093045 58 0 0.0 5.0 0.00 0.42 0.00 89 1016.3
20260507091534 58 63 4.0 8.0 0.00 0.42 0.00 88 1015.8
20260507090037 58 0 0.0 3.0 0.00 0.42 0.00 88 1015.8
20260507084534 58 0 0.0 4.0 0.00 0.42 0.00 88 1015.6
20260507083033 58 0 1.0 3.0 0.00 0.42 0.00 88 1015.5
20260507081547 58 66 2.0 5.0 0.00 0.42 0.00 86 1015.7